Retour au catalogue

COSMOS 2251 DEB

ActifLEO
NORAD 35668·DEBRIS·🇷🇺 Russia

Lancé Jun 16, 1993 depuis Plesetsk Cosmodrome

Loading…

Prochains Passages (prochaines 24 heures)

TLE

FraisSource: Space-Track

Époque: Sep 14, 2026, 02:47 UTC

1 35668U 93036APK 26257.11653754  .00000873  00000-0  16231-3 0  9997
2 35668  74.0443  51.5954 0080843  86.5380 274.5031 14.64644038916787

Suivez COSMOS 2251 DEB en temps réel avec AllMySat

Download on the App Store